Date String (YYYY-MM-DD hh:mm:ss) UTC,Instrument flags,Ambient pressure (hPa),Sample flow (lpm),Bypass flow (lpm),Sample temperature (°C),Ambient temperature (°C),ASC tube jacket temperature (°C),LED temperature (°C),Box temperature (°C),Sample RH (%),Span deviation,Mass concentration (μg/m³),Mass concentration (μg/m³),Mass concentration (μg/m³)
DateTimeUTC,F1_M11,P_M11,Q1_M11,Q2_M11,T1_M11,T2_M11,T3_M11,T4_M11,T5_M11,U1_M11,ZSPAN_M11,X0_M11,X2_M11,X1_M11
2022-09-02 08:00:00,,0826.1,5.00,0.00,29.9,28.6,00.0,38.7,31.7,15.4,0000.0,0012.22,0007.61,0006.73
2022-09-02 08:01:00,,0826.2,5.01,0.00,30.0,28.7,00.0,38.7,31.8,15.4,0000.0,0012.11,0007.54,0006.70
2022-09-02 08:02:00,,0826.2,4.98,0.00,30.0,28.8,00.0,38.7,31.8,15.2,0000.0,0012.03,0007.49,0006.67
2022-09-02 08:03:00,,0826.2,5.00,0.00,30.0,28.8,00.0,38.7,31.9,14.9,0000.0,0011.82,0007.45,0006.66
2022-09-02 08:04:00,,0826.2,5.01,0.00,30.0,28.9,00.0,38.8,31.9,14.5,0000.0,0011.75,0007.42,0006.63
2022-09-02 08:05:00,,0826.2,5.01,0.00,30.0,29.0,00.0,38.8,31.9,13.7,0000.0,0011.57,0007.33,0006.58
2022-09-02 08:06:00,,0826.1,5.01,0.00,30.1,29.0,00.0,38.8,32.0,13.5,0000.0,0011.38,0007.25,0006.54
2022-09-02 08:07:00,,0826.1,4.99,0.00,30.1,29.1,00.0,38.8,32.0,13.8,0000.0,0011.11,0007.13,0006.51
2022-09-02 08:08:00,,0826.1,5.01,0.00,30.1,29.1,00.0,38.8,32.0,13.6,0000.0,0011.06,0007.08,0006.48
2022-09-02 08:09:00,,0826.1,5.00,0.00,30.2,29.2,00.0,38.8,32.0,13.5,0000.0,0011.30,0007.04,0006.46
2022-09-02 08:10:00,,0826.0,4.98,0.00,30.2,29.1,00.0,38.9,32.1,13.3,0000.0,0012.05,0006.98,0006.42
2022-09-02 08:11:00,,0826.0,5.01,0.00,30.2,27.9,00.0,38.9,32.0,13.4,0000.0,0012.67,0006.95,0006.40
2022-09-02 08:12:00,,0826.0,5.00,0.00,30.1,27.1,00.0,38.8,31.9,13.4,0000.0,0013.11,0006.94,0006.39
2022-09-02 08:13:00,,0826.0,5.01,0.00,30.1,27.1,00.0,38.8,31.8,13.2,0000.0,0012.99,0006.90,0006.37
2022-09-02 08:14:00,,0826.0,5.00,0.00,30.0,27.4,00.0,38.8,31.7,13.4,0000.0,0013.00,0006.86,0006.34
2022-09-02 08:15:00,,0826.0,4.98,0.00,30.0,27.7,00.0,38.7,31.7,13.5,0000.0,0012.89,0006.82,0006.33
2022-09-02 08:16:00,,0826.0,5.01,0.00,30.0,27.9,00.0,38.7,31.7,13.3,0000.0,0013.32,0006.80,0006.32
2022-09-02 08:17:00,,0826.0,5.00,0.00,29.9,28.2,00.0,38.7,31.7,13.4,0000.0,0013.34,0006.78,0006.32
2022-09-02 08:18:00,,0826.0,5.00,0.00,30.0,28.3,00.0,38.7,31.7,13.5,0000.0,0013.44,0006.79,0006.31
2022-09-02 08:19:00,,0826.1,5.01,0.00,30.0,28.5,00.0,38.7,31.7,13.3,0000.0,0013.50,0006.82,0006.31
2022-09-02 08:20:00,,0826.1,5.01,0.00,30.0,28.6,00.0,38.7,31.8,13.3,0000.0,0013.59,0006.84,0006.31
2022-09-02 08:21:00,,0826.1,4.98,0.00,30.0,28.7,00.0,38.7,31.8,13.4,0000.0,0012.77,0006.87,0006.31
2022-09-02 08:22:00,,0826.1,5.00,0.00,30.0,28.8,00.0,38.8,31.9,13.4,0000.0,0011.77,0006.86,0006.31
2022-09-02 08:23:00,,0826.2,5.00,0.00,30.0,28.9,00.0,38.8,31.9,13.5,0000.0,0011.15,0006.85,0006.32
2022-09-02 08:24:00,,0826.2,5.00,0.00,30.1,28.9,00.0,38.8,31.9,13.5,0000.0,0011.60,0006.86,0006.33
2022-09-02 08:25:00,,0826.2,5.01,0.00,30.1,29.0,00.0,38.8,32.0,13.4,0000.0,0011.78,0006.83,0006.33
2022-09-02 08:26:00,,0826.2,5.01,0.00,30.1,29.0,00.0,38.8,32.0,13.4,0000.0,0011.82,0006.84,0006.34
2022-09-02 08:27:00,,0826.2,4.99,0.00,30.1,29.1,00.0,38.8,32.0,13.4,0000.0,0011.61,0006.88,0006.36
2022-09-02 08:28:00,,0826.2,5.01,0.00,30.2,29.1,00.0,38.9,32.0,13.4,0000.0,0011.45,0006.90,0006.37
2022-09-02 08:29:00,,0826.2,5.01,0.00,30.2,29.1,00.0,38.9,32.0,13.3,0000.0,0011.36,0006.90,0006.38
2022-09-02 08:30:00,,0826.1,5.00,0.00,30.2,29.2,00.0,38.9,32.1,12.9,0000.0,0011.18,0006.87,0006.38
2022-09-02 08:31:00,,0826.1,4.99,0.00,30.2,29.2,00.0,38.9,32.1,12.4,0000.0,0011.50,0006.81,0006.36
2022-09-02 08:32:00,,0826.2,5.01,0.00,30.2,28.3,00.0,38.9,32.1,12.3,0000.0,0011.31,0006.77,0006.36
2022-09-02 08:33:00,,0826.2,5.00,0.00,30.2,27.2,00.0,38.9,32.0,12.6,0000.0,0011.32,0006.77,0006.35
2022-09-02 08:34:00,,0826.2,5.00,0.00,30.2,27.1,00.0,38.9,31.9,12.4,0000.0,0011.40,0006.79,0006.33
2022-09-02 08:35:00,,0826.2,5.01,0.00,30.1,27.3,00.0,38.8,31.7,12.5,0000.0,0011.47,0006.81,0006.31
2022-09-02 08:36:00,,0826.2,5.01,0.00,30.0,27.6,00.0,38.8,31.7,12.6,0000.0,0011.55,0006.81,0006.28
2022-09-02 08:37:00,,0826.2,5.00,0.00,30.0,27.9,00.0,38.8,31.7,13.2,0000.0,0011.38,0006.84,0006.28
2022-09-02 08:38:00,,0826.2,5.02,0.00,30.0,28.1,00.0,38.8,31.7,12.8,0000.0,0011.15,0006.80,0006.27
2022-09-02 08:39:00,,0826.2,5.00,0.00,30.0,28.3,00.0,38.8,31.7,12.9,0000.0,0011.12,0006.78,0006.26
2022-09-02 08:40:00,,0826.2,5.00,0.00,30.0,28.5,00.0,38.8,31.8,12.8,0000.0,0011.27,0006.78,0006.26
2022-09-02 08:41:00,,0826.2,5.00,0.00,30.0,28.6,00.0,38.8,31.8,12.9,0000.0,0011.80,0006.81,0006.28
2022-09-02 08:42:00,,0826.2,4.98,0.00,30.0,28.7,00.0,38.8,31.9,12.9,0000.0,0011.23,0006.87,0006.33
2022-09-02 08:43:00,,0826.2,5.00,0.00,30.0,28.8,00.0,38.8,31.9,13.1,0000.0,0011.32,0006.94,0006.35
2022-09-02 08:44:00,,0826.2,5.00,0.00,30.1,28.9,00.0,38.8,31.9,13.2,0000.0,0011.49,0006.98,0006.37
2022-09-02 08:45:00,,0826.2,5.01,0.00,30.1,28.9,00.0,38.8,31.9,13.3,0000.0,0011.54,0006.97,0006.40
2022-09-02 08:46:00,,0826.2,4.99,0.00,30.1,29.0,00.0,38.8,32.0,13.5,0000.0,0011.17,0007.00,0006.45
2022-09-02 08:47:00,,0826.2,5.00,0.00,30.1,29.0,00.0,38.9,32.0,13.5,0000.0,0011.05,0007.03,0006.47
2022-09-02 08:48:00,,0826.2,5.01,0.00,30.1,29.1,00.0,38.9,32.0,13.4,0000.0,0011.11,0007.02,0006.49
2022-09-02 08:49:00,,0826.1,5.01,0.00,30.2,29.1,00.0,38.9,32.0,13.5,0000.0,0011.10,0007.03,0006.49
2022-09-02 08:50:00,,0826.1,5.00,0.00,30.2,29.1,00.0,38.9,32.1,13.4,0000.0,0011.11,0007.05,0006.52
2022-09-02 08:51:00,,0826.1,4.99,0.00,30.2,29.2,00.0,38.9,32.1,13.2,0000.0,0011.12,0007.09,0006.54
2022-09-02 08:52:00,,0826.2,5.00,0.00,30.3,29.2,00.0,39.0,32.1,13.0,0000.0,0010.58,0007.07,0006.53
2022-09-02 08:53:00,,0826.2,5.01,0.00,30.3,29.2,00.0,39.0,32.1,12.7,0000.0,0010.56,0007.03,0006.51
2022-09-02 08:54:00,,0826.2,4.98,0.00,30.3,28.2,00.0,39.0,32.0,12.6,0000.0,0010.45,0006.99,0006.49
2022-09-02 08:55:00,,0826.2,5.02,0.00,30.2,27.2,00.0,38.9,32.0,12.5,0000.0,0010.24,0006.95,0006.45
2022-09-02 08:56:00,,0826.2,4.99,0.00,30.2,27.1,00.0,38.9,31.9,12.4,0000.0,0010.13,0006.94,0006.43
2022-09-02 08:57:00,,0826.2,5.00,0.00,30.1,27.4,00.0,38.9,31.7,12.4,0000.0,0010.05,0006.87,0006.37
2022-09-02 08:58:00,,0826.2,5.01,0.00,30.0,27.7,00.0,38.8,31.7,12.4,0000.0,0010.16,0006.82,0006.32
2022-09-02 08:59:00,,0826.2,4.99,0.00,30.0,27.9,00.0,38.8,31.7,12.5,0000.0,0010.44,0006.78,0006.26
